PSLV R/B

Satellite information

Favourite Embed

Satellite Type and Status

ROCKET BODYIN ORBIT

Key statistics

Satellite PSLV R/B at a glance.

Uptime

4791

Days in orbit

Revolutions

≈ 14.8

Per day

Orbit

SSO

Sun Synchronous Orbit

Inclination

98.3

Latest

Satellite identification and parameters

Extended collection of information and parameters for PSLV R/B.

Object identification

Identified? True

Debris? False

Object name: PSLV R/B

International designator: 2012-047C

Object number (NORAD): 38757

Object ID (CCSDS): 38757

Country: INDIA (IND)

Current information (Y/N): Y

RCS size: LARGE

Orbital parameters

Period: 97.116 minutes

Inclination: 98.3188 deg

SMA: 6998.767 km

Apoapsis: 625.181 km

Periapsis: 616.083 km

RAAN: 124.7804 deg

Eccentricy: 0.00065

Argument of periapsis: 56.7666 deg

Mean anomaly: 303.4169 deg

Mean motion: 14.82758624 rev/day

Mean motion (dot): 0.00001604 rev/day2

B* drag term: 0.0002056 1/REarth

Two-line elements (TLE)

Creation date: Oct. 21, 2025, 11:56 p.m.

Reference frame: TEME

Reference center: EARTH

Epoch: Oct. 21, 2025, 6:50 p.m. UTC

TLE line 0: 0 PSLV R/B

TLE line 1: 1 38757U 12047C 25294.78525536 .00001604 00000-0 20560-3 0 9994

TLE line 2: 2 38757 98.3188 124.7804 0006500 56.7666 303.4169 14.82758624707548

Live tracking on map

Real-time ground track for satellite PSLV R/B.

In-orbit conjunctions

A list of the most updated potential collisions computed for object PSLV R/B.

Target Orbit TCA Probability of collision Miss distance Type
IRIDIUM 33 DEB LEO 2025-02-19 08:23:58 0.001491069 79.0 (m) DEBRIS
COSMOS 2251 DEB LEO 2024-12-26 18:15:55 0.0003557844 345.0 (m) DEBRIS
THORAD AGENA D DEB LEO 2024-12-08 16:57:55 0.0001689617 22.0 (m) DEBRIS
CZ-6A DEB LEO 2024-09-28 05:34:31 0.0006852002 450.0 (m) DEBRIS

Associated space launch

PSLV R/B was lifted into orbit during the mission ‘PSLV-CA | SPOT 6 & PROITERES’, on board a PSLV space rocket.

The launch took place on Sept. 9, 2012, 4:23 a.m. from Satish Dhawan Space Centre First Launch Pad.

For more information about the launch, click the button.

Launch to space PSLV-CA | SPOT 6 & PROITERES
PSLV-CA | SPOT 6 & PROITERES

Agency: N/A

Status: Launch Successful

Launch date: Sept. 9, 2012, 4:23 a.m. UTC

Rocket: PSLV

Launch pad: Satish Dhawan Space Centre First Launch Pad

Location: Satish Dhawan Space Centre, India

...

Latest news about this satellite

There are no fresh news available about this satellite. Check back as we update our databases every day.


Newsletter sign-up

Weekly statistics, charts and insights to help you stay on top of the space industry.